sat.trackr.live / text

‹ back to catalog

STARLINK-36100

NORAD 66942 · 2025-286T

PAYLOAD ACTIVE UNKNOWN

§ Identity

Operator
Country
US
Launch date
2025-12-07
Launch site
AFWTR
Launch vehicle
Mass (kg)
RCS (m²)

Purposes: comms

External: N2YO · Heavens-Above · Gunter

§ Orbital elements

Epoch: 2026-05-25T04:00:03.998880Z

Period
93.90 min
Inclination
53.1607°
Eccentricity
0.0001344
Mean motion
15.33560611 rev/d
Perigee alt
464.3 km
Apogee alt
466.1 km
Semi-major
6,843.3 km
B*
1.6937e-4
RAAN
3.0061°
Arg perigee
74.8392°
Mean anomaly
109.8458°
Rev number
575

§ Raw data

STARLINK-361001 66942U 25286T   26145.16671295  .00005203  00000+0  16937-3 0  99932 66942  53.1607   3.0061 0001344  74.8392 109.8458 15.33560611  5759

JSON: /api/v1/satellites/66942 · /tle

For live sub-satellite position, see the globe view (requires WebGL).

§ Visibility from observer

Set your observer location to see the next 7 days of passes ≥ 10°. The values pass through the URL so the page stays shareable.

No JS? Fill the form by hand. The geolocation button needs JavaScript.